[[{"header":{"parameterUnit":"m.s-1","parameterCategory":1,"la1":30.2991,"la2":30.254,"lo1":-89.0895,"lo2":-89.0444,"dy":0.0017,"dx":0.0017,"nx":28,"ny":28,"refTime":"2024-06-30T03:00:00:Z","depth":0,"parameterNumber":2,"parameterNumberName":"U-component_of_WINDS"},"data":[0,0,0,0,0,0,0,0,0,0,0,0,0,0,0,0,0,0,0,0,0,0,0,0,0,0,0,0,0,0,0,0,0,0,0,0,0,0,0,0,0,0,0,0,0,0,0,0,0,0,0,0,0,0,0,0,0,0,1.8734,1.8736,0,1.8968,1.897,1.8973,1.9017,1.9015,1.9013,1.9012,1.9257,1.9265,1.9273,0,0,0,0,0,0,0,0,0,0,0,0,0,1.833,1.8338,1.8733,1.8736,1.8739,1.8967,1.8971,1.8974,1.9017,1.9015,1.9013,1.9011,1.9254,1.9264,1.9274,0,0,0,0,0,0,0,0,0,0,0,0,0,1.8529,1.834,1.8733,1.8788,1.8796,1.8967,1.8971,1.8975,1.9018,1.9015,1.9012,1.901,1.9251,1.9263,1.9276,1.9409,0,0,1.9314,1.9319,0,0,0,0,0,0,0,0,1.8518,1.8544,1.8777,1.8785,1.8793,1.896,1.8919,1.9121,1.9019,1.8934,1.9011,1.9008,1.9161,1.9181,1.9231,1.9421,1.9431,1.9315,1.9322,1.9328,1.9331,0,0,0,0,0,0,0,1.8504,1.8534,1.8826,1.8781,1.8791,1.8804,1.8829,1.8957,1.9061,1.8941,1.8945,1.8971,1.9165,1.9219,1.9237,1.9435,1.9314,1.9326,1.9333,1.9338,1.9749,1.9752,0,0,0,0,0,0,1.848,1.8522,1.8819,1.8833,1.8646,1.8813,1.8841,1.891,1.9059,1.9079,1.8974,1.8973,1.9199,1.9223,1.9246,1.9413,1.9328,1.9339,1.9346,1.9745,1.9749,1.9753,0,0,0,0,0,0,1.8471,1.8506,1.8809,1.8679,1.8719,1.8823,1.89,1.8916,1.897,1.9084,1.9103,1.9009,1.9198,1.9228,1.9368,1.9422,1.9345,1.9356,1.9741,1.9746,1.9751,1.9748,0,0,0,0,0,0,1.8459,1.8502,1.8552,1.868,1.8725,1.8926,1.8903,1.8922,1.899,1.8991,1.9123,1.9142,1.9198,1.935,1.9381,1.9438,1.9366,1.9737,1.9743,1.975,1.9744,1.9753,1.976,0,0,0,0,0,1.8444,1.8543,1.8555,1.859,1.879,1.8929,1.8955,1.9016,1.8994,1.9047,1.9121,1.9138,1.9411,1.9364,1.9399,1.9461,1.9734,1.9742,1.9749,1.974,1.9751,1.976,0,0,0,0,0,0,1.8421,1.8561,1.8575,1.8718,1.8811,1.8936,1.9004,1.9025,1.9128,1.9125,1.9198,1.9227,1.9363,1.9427,1.9371,1.9599,1.9572,1.9587,1.9553,1.9564,1.9572,1.9554,1.9376,0,0,0,0,0,1.8432,1.8531,1.8649,1.8764,1.8809,1.8898,1.8961,1.9,1.91,1.914,1.9224,1.9323,1.9431,1.9501,1.9607,1.9754,1.9784,1.9814,1.9822,1.9828,1.984,1.9924,1.9939,1.9778,1.9778,1.9778,0,0,1.8457,1.8546,1.8604,1.8761,1.8838,1.8941,1.8931,1.904,1.9118,1.9158,1.9294,1.936,1.9475,1.9618,1.9686,1.9675,1.9892,1.9838,1.9842,1.9851,1.9933,1.9949,1.9962,1.9784,1.9783,1.9782,0,0,1.8554,1.8631,1.8735,1.8812,1.8928,1.8986,1.9011,1.9134,1.9178,1.9316,1.9348,1.9443,1.9628,1.9709,1.9774,1.9903,1.9923,1.9936,1.9978,2.0059,2.0071,2.0083,2.013,2.0146,1.9948,1.9948,1.9948,0,1.8571,1.8725,1.8786,1.8894,1.8963,1.9002,1.9109,1.9182,1.9327,1.9375,1.936,1.9594,1.9674,1.9838,1.9869,1.992,1.9953,1.9921,2.0064,2.0076,2.0088,2.0134,2.0151,1.9949,1.9949,1.9949,1.9949,0,1.874,1.8847,1.8917,1.9055,1.9132,1.9239,1.9318,1.939,1.9422,1.9483,1.9624,1.9722,1.9849,1.9891,1.9924,2.006,2.005,2.0049,2.0022,2.0103,2.0147,2.0165,1.995,1.995,1.9949,1.9949,0,0,1.8829,1.8999,1.9024,1.9087,1.9218,1.9303,1.9413,1.9535,1.9595,1.9695,1.979,1.9946,1.9946,2.002,2.0063,2.0134,2.0231,2.0125,2.0129,2.0141,2.0389,2.0388,2.0407,2.0245,2.0249,2.0252,2.0379,0,1.8942,1.9137,1.9196,1.936,1.946,1.9499,1.9596,1.9688,1.9748,1.9844,1.9911,2.0021,2.0012,2.0057,2.0129,2.0204,2.0282,2.0196,2.0336,2.034,2.0306,2.043,2.0431,2.0546,2.0397,2.04,2.0402,0,1.91,1.92,1.9374,1.9493,1.9538,1.9622,1.974,1.983,1.9936,1.9976,2.0058,2.0096,2.0214,2.0181,2.0347,2.0286,2.0348,2.0394,2.04,2.0415,2.0376,2.045,2.0584,2.0601,2.0429,2.0427,2.0425,0,1.9148,1.9327,1.9454,1.9507,1.9649,1.9708,1.977,1.9874,1.9944,2.0047,2.0094,2.0211,2.0275,2.0365,2.0434,2.0403,2.0594,2.0566,2.0632,2.063,2.067,2.0666,2.0816,2.0709,2.0709,2.0708,2.0708,0,1.9268,1.9373,1.9477,1.9555,1.9675,1.9743,1.986,1.9925,2.0016,2.011,2.0152,2.0239,2.0324,2.0423,2.0478,2.0608,2.0636,2.0673,2.0686,2.0669,2.0664,2.071,2.0704,2.0713,2.0712,2.0711,2.071,0,1.9342,1.9415,1.9557,1.968,1.9713,1.9796,1.9902,1.9981,2.0043,2.016,2.0192,2.029,2.0409,2.0487,2.0639,2.0676,2.0818,2.0829,2.0781,2.0787,2.0848,2.0842,2.1033,2.1062,2.0934,2.0936,2.0937,0,1.9413,1.9495,1.9626,1.9691,1.9753,1.9856,1.9928,1.9999,2.0072,2.02,2.0263,2.0385,2.0485,2.0674,2.076,2.0878,2.0892,2.0951,2.091,2.0891,2.0894,2.0888,2.0897,2.0958,2.0959,2.096,2.096,0,1.9534,1.9566,1.9666,1.978,1.9864,1.9957,2.0051,2.0102,2.019,2.027,2.0391,2.0469,2.0624,2.0745,2.087,2.0937,2.0964,2.0973,2.0994,2.0978,2.0947,2.0965,2.0799,2.0968,2.0967,2.0967,2.0966,2.0966,1.9609,1.9684,1.9788,1.9899,1.9976,2.0063,2.0143,2.0215,2.0316,2.0446,2.0483,2.061,2.0716,2.0886,2.0956,2.1057,2.1051,2.1082,2.109,2.1096,2.1097,2.093,2.1081,2.108,2.108,2.108,2.108,0,1.9732,1.9801,1.9902,2.0031,2.0119,2.0135,2.024,2.0313,2.0423,2.0519,2.0617,2.0757,2.0874,2.097,2.1091,2.1154,2.117,2.1184,2.118,2.1196,2.1095,2.1065,2.1169,2.1169,2.1169,2.1169,2.1169,2.1169,1.9806,1.9933,1.9978,2.0145,2.0214,2.0337,2.0396,2.0477,2.0553,2.0707,2.0804,2.0865,2.0962,2.1091,2.12,2.1225,2.1268,2.128,2.1308,2.1212,2.1202,2.1193,2.1165,2.1288,2.1288,2.14,2.1401,2.1401]},{"header":{"parameterUnit":"m.s-1","parameterCategory":1,"la1":30.2991,"la2":30.254,"lo1":-89.0895,"lo2":-89.0444,"dy":0.0017,"dx":0.0017,"nx":28,"ny":28,"refTime":"2024-06-30T03:00:00:Z","depth":0,"parameterNumber":3,"parameterNumberName":"V-component_of_WINDS"},"data":[0,0,0,0,0,0,0,0,0,0,0,0,0,0,0,0,0,0,0,0,0,0,0,0,0,0,0,0,0,0,0,0,0,0,0,0,0,0,0,0,0,0,0,0,0,0,0,0,0,0,0,0,0,0,0,0,0,0,2.36,2.3602,0,2.3729,2.373,2.3732,2.3691,2.3688,2.3685,2.3683,2.3813,2.3818,2.3824,0,0,0,0,0,0,0,0,0,0,0,0,0,2.3319,2.3324,2.36,2.3602,2.3604,2.3728,2.373,2.3732,2.3691,2.3688,2.3685,2.3682,2.3811,2.3818,2.3825,0,0,0,0,0,0,0,0,0,0,0,0,0,2.3443,2.3326,2.36,2.3598,2.36,2.3728,2.373,2.3732,2.3692,2.3688,2.3684,2.368,2.3808,2.3817,2.3826,2.3963,0,0,2.3853,2.3857,0,0,0,0,0,0,0,0,2.3436,2.3454,2.3597,2.3599,2.36,2.369,2.3678,2.381,2.3693,2.3657,2.3683,2.3678,2.3775,2.3786,2.3819,2.3969,2.3975,2.3854,2.386,2.3863,2.3866,0,0,0,0,0,0,0,2.3428,2.3448,2.3651,2.3599,2.3601,2.3591,2.3604,2.3703,2.3737,2.366,2.3657,2.3673,2.3775,2.3811,2.3822,2.3977,2.3854,2.3862,2.3867,2.3871,2.4246,2.425,0,0,0,0,0,0,2.3418,2.3441,2.3647,2.3655,2.3507,2.3599,2.3614,2.3665,2.3736,2.3743,2.3676,2.367,2.3797,2.3812,2.3826,2.3992,2.3863,2.3872,2.3877,2.4241,2.4247,2.4252,0,0,0,0,0,0,2.3412,2.3437,2.3642,2.3547,2.3573,2.3608,2.3666,2.367,2.3706,2.3749,2.3754,2.3707,2.3795,2.3814,2.393,2.3996,2.3876,2.3884,2.4236,2.4243,2.4249,2.4325,0,0,0,0,0,0,2.3405,2.3435,2.3488,2.3549,2.3578,2.3744,2.367,2.3675,2.3721,2.3715,2.3779,2.3785,2.3793,2.3916,2.3939,2.4006,2.3891,2.423,2.4239,2.4247,2.4317,2.4334,2.4348,0,0,0,0,0,2.3395,2.3504,2.3491,2.3516,2.3645,2.3748,2.3764,2.3771,2.3727,2.378,2.3808,2.3783,2.3985,2.3929,2.3953,2.4025,2.4226,2.4236,2.4246,2.431,2.433,2.4348,0,0,0,0,0,0,2.345,2.3512,2.3498,2.3631,2.3684,2.3741,2.3808,2.3793,2.386,2.3851,2.3856,2.3871,2.399,2.4019,2.3955,2.4161,2.4099,2.4115,2.4139,2.4158,2.4174,2.4165,2.3898,0,0,0,0,0,2.3478,2.3556,2.3606,2.3718,2.3746,2.3773,2.3817,2.3818,2.3874,2.3896,2.3932,2.3986,2.4062,2.4111,2.4183,2.432,2.4334,2.4382,2.4397,2.441,2.4424,2.4498,2.452,2.4285,2.4285,2.4285,0,0,2.3535,2.3579,2.3628,2.373,2.3772,2.3853,2.3792,2.388,2.394,2.3909,2.4021,2.4049,2.411,2.4237,2.4295,2.4265,2.4491,2.4423,2.4433,2.444,2.4511,2.4533,2.4553,2.4292,2.4291,2.429,0,0,2.3683,2.3723,2.3821,2.3864,2.3928,2.3945,2.3969,2.4028,2.4046,2.4158,2.4137,2.4208,2.4338,2.4382,2.4422,2.4585,2.4565,2.4608,2.469,2.4763,2.4782,2.4798,2.4857,2.4878,2.4622,2.4622,2.4622,0,2.3746,2.3868,2.3874,2.3964,2.401,2.3986,2.4085,2.4126,2.421,2.4242,2.4207,2.437,2.4409,2.4546,2.4586,2.4619,2.4645,2.4602,2.4779,2.4795,2.4811,2.4867,2.4889,2.4627,2.4626,2.4626,2.4625,0,2.3944,2.4028,2.41,2.4182,2.4236,2.433,2.4349,2.4402,2.4398,2.4419,2.4534,2.458,2.4661,2.4693,2.469,2.483,2.481,2.4777,2.4714,2.4838,2.4891,2.4912,2.4634,2.4632,2.4631,2.4629,0,0,2.413,2.4214,2.424,2.4278,2.4346,2.4412,2.4504,2.4584,2.463,2.4688,2.4766,2.4877,2.4847,2.4892,2.4893,2.4957,2.5084,2.4916,2.4918,2.4947,2.5242,2.5267,2.5292,2.5071,2.5075,2.5078,2.5237,0,2.4283,2.4447,2.4455,2.4604,2.4683,2.4661,2.4742,2.4792,2.4814,2.4883,2.4906,2.4985,2.4939,2.4966,2.5028,2.5056,2.5144,2.5044,2.5144,2.5147,2.513,2.532,2.5347,2.5494,2.5258,2.5261,2.5264,0,2.4484,2.455,2.4707,2.4765,2.4798,2.4871,2.4945,2.5011,2.5068,2.5079,2.5129,2.5121,2.5216,2.5149,2.528,2.5212,2.5253,2.5272,2.5278,2.5288,2.5214,2.5336,2.5542,2.5564,2.5296,2.5294,2.5291,0,2.4605,2.4732,2.4843,2.4875,2.4945,2.4997,2.5029,2.5081,2.5129,2.5193,2.5224,2.5298,2.5338,2.5396,2.5408,2.5358,2.5538,2.5473,2.555,2.555,2.559,2.5588,2.5806,2.5615,2.5615,2.5614,2.5614,0,2.4776,2.4873,2.4898,2.4967,2.5075,2.5082,2.5189,2.5217,2.5264,2.5337,2.5322,2.539,2.5402,2.5473,2.5482,2.5589,2.5607,2.5619,2.562,2.5621,2.562,2.5649,2.5639,2.562,2.5619,2.5618,2.5617,0,2.4929,2.495,2.507,2.5126,2.5143,2.522,2.5268,2.5334,2.5353,2.5446,2.5468,2.5498,2.5581,2.5599,2.5696,2.5703,2.583,2.5821,2.5812,2.5811,2.5888,2.5881,2.6134,2.6168,2.5953,2.5955,2.5957,0,2.5037,2.5112,2.5177,2.5225,2.5259,2.5337,2.5385,2.5395,2.5446,2.5517,2.5573,2.5655,2.572,2.5854,2.5884,2.5959,2.5952,2.6035,2.5963,2.5962,2.5955,2.5951,2.5958,2.605,2.6052,2.6054,2.6055,0,2.5227,2.5234,2.5305,2.5381,2.544,2.5499,2.5555,2.5595,2.5613,2.5671,2.5756,2.5807,2.5907,2.5988,2.6063,2.6094,2.6079,2.6078,2.61,2.6102,2.6094,2.61,2.5851,2.6072,2.6071,2.6069,2.6068,2.6068,2.5362,2.5428,2.5484,2.5564,2.5608,2.5661,2.5725,2.5753,2.5825,2.5908,2.5909,2.6002,2.6056,2.6155,2.6191,2.6263,2.6237,2.6269,2.6277,2.6285,2.6293,2.6081,2.6277,2.6276,2.6276,2.6275,2.6275,0,2.5552,2.5587,2.5661,2.5741,2.5804,2.5783,2.5845,2.5899,2.5981,2.6034,2.6099,2.6197,2.6275,2.6312,2.6389,2.644,2.6435,2.646,2.6457,2.6465,2.6311,2.6285,2.6463,2.6463,2.6463,2.6463,2.6463,2.6463,2.5659,2.5769,2.5782,2.5914,2.5948,2.604,2.6077,2.6126,2.6168,2.6278,2.6344,2.6367,2.6413,2.6494,2.6565,2.6574,2.6603,2.6633,2.6638,2.6494,2.6475,2.6457,2.6432,2.6639,2.6639,2.6785,2.6787,2.6788]}]]